Regional Weather Roundup
Issued by NWS Cleveland, OH

Home | Current Version | Previous Version | Text Only | Print | Product List | Glossary On
Versions: 1 2 3 4 5 6 7 8 9 10 11 12 13 14 15 16 17 18 19 20 21 22 23 24 25 26 27 28 29 30 31 32 33 34 35 36 37 38 39 40 41 42 43 44 45 46 47 48 49 50
000
ASUS41 KCLE 190012
RWRCLE
OHIO REGIONAL WEATHER ROUNDUP
NATIONAL WEATHER SERVICE WILMINGTON, OH
800 PM EDT TUE MAY 18 2021

NOTE: "FAIR" INDICATES FEW OR NO CLOUDS BELOW 12,000 FEET WITH NO
SIGNIFICANT WEATHER AND/OR OBSTRUCTIONS TO VISIBILITY.

OHZ001>008-015>018-024>027-034-035-043-044-190100-
   NORTHWEST OHIO

CITY           SKY/WX    TMP DP  RH WIND       PRES   REMARKS
DEFIANCE       FAIR      78  54  43 SE3       30.22F
FINDLAY        FAIR      75  54  47 S9        30.22F
TOLEDO EXPRESS FAIR      74  46  36 E15       30.23F
TOLEDO EXEC    FAIR      71  45  39 E10       30.24F
LIMA           FAIR      75  52  44 S6        30.23F
$$

OHZ009>014-019>023-028>033-038-089-190100-
   NORTHEAST OHIO

CITY           SKY/WX    TMP DP  RH WIND       PRES   REMARKS
CLE-HOPKINS    MOCLDY    68  45  43 N8        30.25F
CLE-LAKEFRONT  FAIR      63  53  70 NE7       30.25F
CUY CO. ARPT   PTCLDY    66  50  55 NE6       30.27S
LORAIN-ELYRIA  FAIR      71  44  37 E10       30.26F
ASHTABULA      FAIR      71  42  35 VRB3      30.29F
AKRON-CANTON   MOCLDY    76  47  35 SW3       30.27F
WOOSTER        FAIR      71  50  47 E6        30.27F
MANSFIELD      FAIR      74  51  44 E5        30.26F
YOUNGSTOWN     FAIR      74  44  34 CALM      30.29F
$$

OHZ042-051>053-060>062-070>072-077>081-190100-
  SOUTHWEST OHIO

CITY           SKY/WX    TMP DP  RH WIND       PRES   REMARKS
CINC-COVINGTON MOCLDY    75  56  51 SE9       30.21S
CINC-LUNKEN    FAIR      75  57  53 SE5       30.21F
HAMILTON       FAIR      76  54  46 CALM      30.22F
DAYTON         MOCLDY    72  53  51 SE7       30.24F
WRIGHT-PAT AFB NOT AVBL
DAYTON GENERAL FAIR      73  54  51 E6        30.22F
WILMINGTON     FAIR      72  59  63 SE7       30.23F
$$

OHZ036-037-039>041-045>050-054>059-063>069-073>076-082>088-190100-
  CENTRAL AND SOUTHEAST OHIO

CITY           SKY/WX    TMP DP  RH WIND       PRES   REMARKS
COLUMBUS       CLOUDY    76  54  46 SE6       30.23F
OSU AIRPORT    FAIR      77  54  44 VRB6      30.23F
BOLTON FIELD   FAIR      74  57  54 S5        30.24F
RICKENBACK AFB FAIR      74  54  49 SE5       30.23F
NEWARK         FAIR      75  54  47 SE3       30.23F
MARION         FAIR      74  51  44 SE6       30.24F
LANCASTER      FAIR      74  58  57 S5        30.25F
ZANESVILLE     FAIR      76  51  41 E5        30.24F
NEW PHILLY     FAIR      76  47  35 E3        30.26F
$$



USA.gov is the U.S. government's official web portal to all federal, state and local government web resources and services.